DW2128 Weather Reports


time (UTC)temp
C
wind
direction
speed
KPH
gust
KPH
rain 1hr
cm
rain 24hr
cm
rain mn
cm
humidity
%
barometer
mb
20260508060338 13 5 0.0 0.0 0.00 0.00 0.00 81 1016.7
20260508055033 13 342 0.0 0.0 0.00 0.00 0.00 81 1016.7
20260508054837 13 342 0.0 0.0 0.00 0.00 0.00 81 1016.7
20260508053534 13 246 0.0 0.0 0.00 0.00 0.00 81 1016.7
20260508053337 13 246 0.0 0.0 0.00 0.00 0.00 81 1016.7
20260508052053 13 241 0.0 0.0 0.00 0.00 0.00 81 1016.7
20260508051822 13 241 0.0 0.0 0.00 0.00 0.00 80 1016.7
20260508050540 13 241 0.0 0.0 0.00 0.00 0.00 80 1016.7
20260508050322 13 343 0.0 0.0 0.00 0.00 0.00 80 1016.7
20260508045036 14 343 0.0 0.0 0.00 0.00 0.00 79 1016.7
20260508044859 14 343 0.0 0.0 0.00 0.00 0.00 79 1016.6
20260508043552 14 315 0.0 0.0 0.00 0.00 0.00 77 1016.6
20260508043335 14 315 0.0 0.0 0.00 0.00 0.00 77 1016.3
20260508042030 14 315 0.0 0.0 0.00 0.00 0.00 75 1016.3
20260508041840 14 315 0.0 0.0 0.00 0.00 0.00 75 1016.2
20260508040534 15 315 0.0 0.0 0.00 0.00 0.00 74 1016.2
20260508040358 15 315 0.0 0.0 0.00 0.00 0.00 74 1015.9
20260508035033 15 315 0.0 0.0 0.00 0.00 0.00 72 1015.9
20260508034825 15 315 0.0 0.0 0.00 0.00 0.00 72 1015.8
20260508033534 15 315 0.0 0.0 0.00 0.00 0.00 70 1015.8
20260508033322 15 315 0.0 0.0 0.00 0.00 0.00 70 1015.7
20260508032036 16 315 0.0 0.0 0.00 0.00 0.00 68 1015.7
20260508031839 16 315 0.0 0.0 0.00 0.00 0.00 67 1015.6
20260508030552 16 315 0.0 0.0 0.00 0.00 0.00 66 1015.6
20260508030336 16 315 0.0 0.0 0.00 0.00 0.00 65 1015.5
20260508025030 17 329 0.0 0.0 0.00 0.00 0.00 63 1015.5
20260508024839 17 329 0.0 0.0 0.00 0.00 0.00 63 1015.3
20260508023553 18 329 0.0 0.0 0.00 0.00 0.00 60 1015.3
20260508023338 18 329 0.0 0.0 0.00 0.00 0.00 59 1015.2
20260508022031 19 9 1.6 0.0 0.00 0.00 0.00 58 1015.2
20260508021840 19 9 0.0 0.0 0.00 0.00 0.00 57 1015.2
20260508020551 20 259 1.6 0.0 0.00 0.00 0.00 55 1015.2
20260508020338 20 259 0.0 0.0 0.00 0.00 0.00 55 1015.2
20260508015037 20 355 1.6 0.0 0.00 0.00 0.00 55 1015.2
20260508014842 20 355 1.6 0.0 0.00 0.00 0.00 54 1015.1
20260508013534 21 248 1.6 0.0 0.00 0.00 0.00 53 1015.1
20260508013324 21 281 1.6 0.0 0.00 0.00 0.00 53 1015.1
20260508012017 21 236 1.6 0.0 0.00 0.00 0.00 52 1015.1
20260508011825 22 9 1.6 0.0 0.00 0.00 0.00 52 1015.0
20260508010538 22 282 1.6 0.0 0.00 0.00 0.00 52 1015.0
20260508010324 22 281 1.6 0.0 0.00 0.00 0.00 52 1015.1
20260508005021 22 221 1.6 0.0 0.00 0.00 0.00 52 1015.1
20260508004830 22 215 1.6 0.0 0.00 0.00 0.00 51 1014.9
20260508003524 23 246 0.0 0.0 0.00 0.00 0.00 49 1014.9
20260508003328 23 246 0.0 0.0 0.00 0.00 0.00 49 1014.8
20260508002024 23 285 1.6 0.0 0.00 0.00 0.00 49 1014.8
20260508001830 23 284 0.0 0.0 0.00 0.00 0.00 50 1014.6
20260508000524 24 246 1.6 0.0 0.00 0.00 0.00 45 1014.7
20260508000357 24 290 1.6 0.0 0.00 0.00 0.00 45 1014.6
20260507235030 25 261 1.6 0.0 0.00 0.00 0.00 41 1014.6
20260507234838 25 5 1.6 0.0 0.00 0.00 0.00 42 1014.6
20260507233533 25 19 1.6 0.0 0.00 0.00 0.00 40 1014.6
20260507233322 25 19 1.6 0.0 0.00 0.00 0.00 40 1014.7
20260507232051 25 345 3.2 0.0 0.00 0.00 0.00 42 1014.7
20260507231838 25 15 3.2 0.0 0.00 0.00 0.00 43 1014.7
20260507230532 25 263 0.0 0.0 0.00 0.00 0.00 44 1014.7
20260507230337 25 263 1.6 0.0 0.00 0.00 0.00 45 1014.9
20260507225034 24 22 1.6 0.0 0.00 0.00 0.00 47 1014.9
20260507224823 24 344 0.0 0.0 0.00 0.00 0.00 47 1015.1
20260507223540 25 22 3.2 0.0 0.00 0.00 0.00 43 1015.1
20260507223342 25 19 1.6 0.0 0.00 0.00 0.00 43 1015.2
20260507222036 24 233 1.6 0.0 0.00 0.00 0.00 44 1015.2
20260507221840 24 230 1.6 0.0 0.00 0.00 0.00 45 1015.2
20260507220535 24 242 1.6 0.0 0.00 0.00 0.00 46 1015.2
20260507220323 24 242 1.6 0.0 0.00 0.00 0.00 47 1015.3
20260507215037 23 23 1.6 0.0 0.00 0.00 0.00 47 1015.3
20260507214822 23 22 1.6 0.0 0.00 0.00 0.00 48 1015.5
20260507213536 22 251 3.2 0.0 0.00 0.00 0.00 52 1015.5
20260507213324 22 249 3.2 0.0 0.00 0.00 0.00 51 1015.7
20260507212034 22 304 0.0 0.0 0.00 0.00 0.00 49 1015.7
20260507211823 22 304 0.0 0.0 0.00 0.00 0.00 51 1015.9
20260507210520 22 304 1.6 0.0 0.00 0.00 0.00 53 1015.8
20260507210324 22 53 0.0 0.0 0.00 0.00 0.00 53 1016.1
20260507205058 21 28 1.6 0.0 0.00 0.00 0.00 54 1016.1
20260507204826 21 28 1.6 0.0 0.00 0.00 0.00 53 1016.2
20260507203521 21 232 1.6 0.0 0.00 0.00 0.00 55 1016.2
20260507203326 21 232 1.6 0.0 0.00 0.00 0.00 54 1016.3
20260507202020 20 25 0.0 0.0 0.00 0.00 0.00 56 1016.3
20260507201827 20 287 0.0 0.0 0.00 0.00 0.00 56 1016.5
20260507200521 20 28 0.0 0.0 0.00 0.00 0.00 58 1016.5
20260507200331 20 225 1.6 0.0 0.00 0.00 0.00 59 1016.7
20260507195024 19 26 1.6 0.0 0.00 0.00 0.00 61 1016.7
20260507194829 19 17 1.6 0.0 0.00 0.00 0.00 61 1016.9
20260507193526 19 329 0.0 0.0 0.00 0.00 0.00 63 1016.9
20260507193331 18 340 0.0 0.0 0.00 0.00 0.00 63 1017.1
20260507192025 19 19 1.6 0.0 0.00 0.00 0.00 61 1017.2
20260507191816 18 319 1.6 0.0 0.00 0.00 0.00 63 1017.2
20260507190537 18 5 1.6 0.0 0.00 0.00 0.00 65 1017.2
20260507190322 18 244 1.6 0.0 0.00 0.00 0.00 63 1017.4
20260507185036 17 19 3.2 0.0 0.00 0.00 0.00 67 1017.4
20260507184824 17 19 3.2 0.0 0.00 0.00 0.00 66 1017.5
20260507183519 17 297 1.6 0.0 0.00 0.00 0.00 69 1017.5
20260507183323 17 9 1.6 0.0 0.00 0.00 0.00 70 1017.6
20260507182056 16 246 1.6 0.0 0.00 0.00 0.00 72 1017.6
20260507181839 16 346 1.6 0.0 0.00 0.00 0.00 72 1017.5
20260507180533 16 246 1.6 0.0 0.00 0.00 0.00 74 1017.5
20260507180322 16 244 1.6 0.0 0.00 0.00 0.00 73 1017.5
20260507175035 15 355 0.0 0.0 0.00 0.00 0.00 75 1017.4
20260507174840 15 267 0.0 0.0 0.00 0.00 0.00 76 1017.4
20260507173534 15 263 0.0 0.0 0.00 0.00 0.00 79 1017.4
20260507173338 15 263 0.0 0.0 0.00 0.00 0.00 79 1017.4
20260507172034 15 340 0.0 0.0 0.00 0.00 0.00 79 1017.4
20260507171823 15 340 0.0 0.0 0.00 0.00 0.00 79 1017.5
20260507170538 14 338 0.0 0.0 0.00 0.00 0.00 80 1017.5
20260507170323 14 338 0.0 0.0 0.00 0.00 0.00 81 1017.6
20260507165038 14 338 0.0 0.0 0.00 0.00 0.00 81 1017.6
20260507164827 14 338 0.0 0.0 0.00 0.00 0.00 82 1017.7
20260507163541 14 338 0.0 0.0 0.00 0.00 0.00 82 1017.7
20260507163323 13 338 0.0 0.0 0.00 0.00 0.00 82 1017.7
20260507162037 13 338 0.0 0.0 0.00 0.00 0.00 83 1017.7
20260507161822 13 338 0.0 0.0 0.00 0.00 0.00 83 1017.7
20260507160536 13 338 0.0 0.0 0.00 0.00 0.00 83 1017.7
20260507160323 13 338 0.0 0.0 0.00 0.00 0.00 83 1017.6
20260507155019 13 339 0.0 0.0 0.00 0.00 0.00 83 1017.6
20260507154844 13 338 0.0 0.0 0.00 0.00 0.00 83 1017.5
20260507153536 13 339 0.0 0.0 0.00 0.00 0.00 84 1017.5
20260507153322 13 339 0.0 0.0 0.00 0.00 0.00 84 1017.6
20260507152035 13 339 0.0 0.0 0.00 0.00 0.00 84 1017.6
20260507151824 13 339 0.0 0.0 0.00 0.00 0.00 84 1017.6
20260507150537 13 339 0.0 0.0 0.00 0.00 0.00 84 1017.6
20260507150322 13 339 0.0 0.0 0.00 0.00 0.00 84 1017.6
20260507145036 13 339 0.0 0.0 0.00 0.00 0.00 84 1017.6
20260507144900 13 339 0.0 0.0 0.00 0.00 0.00 84 1017.5
20260507143533 13 339 0.0 0.0 0.00 0.00 0.00 84 1017.5
20260507143322 13 339 0.0 0.0 0.00 0.00 0.00 84 1017.3
20260507142036 13 339 0.0 0.0 0.00 0.00 0.00 84 1017.3
20260507141840 13 339 0.0 0.0 0.00 0.00 0.00 84 1017.2
20260507140556 13 339 0.0 0.0 0.00 0.00 0.00 84 1017.2
20260507140323 13 339 0.0 0.0 0.00 0.00 0.00 84 1017.2
20260507135017 13 339 0.0 0.0 0.00 0.00 0.00 84 1017.2
20260507134825 13 339 0.0 0.0 0.00 0.00 0.00 84 1017.2
20260507133559 13 339 0.0 0.0 0.00 0.00 0.00 84 1017.2
20260507133322 13 339 0.0 0.0 0.00 0.00 0.00 84 1017.0
20260507132059 13 339 0.0 0.0 0.00 0.00 0.00 84 1017.0
20260507131827 13 339 0.0 0.0 0.00 0.00 0.00 84 1016.8
20260507130521 13 339 0.0 0.0 0.00 0.00 0.00 84 1016.8
20260507130325 13 339 0.0 0.0 0.00 0.00 0.00 84 1016.7
20260507125019 13 339 0.0 0.0 0.00 0.00 0.00 84 1016.7
20260507124823 13 339 0.0 0.0 0.00 0.00 0.00 84 1016.8
20260507123537 13 339 0.0 0.0 0.00 0.00 0.00 84 1016.8
20260507123346 13 339 0.0 0.0 0.00 0.00 0.00 84 1016.9
20260507122019 13 339 0.0 0.0 0.00 0.00 0.00 84 1016.9
20260507121826 13 339 0.0 0.0 0.00 0.00 0.00 84 1017.0
20260507120521 13 339 0.0 0.0 0.00 0.00 0.00 84 1017.0
20260507120326 13 339 0.0 0.0 0.00 0.00 0.00 84 1017.2
20260507115023 13 339 0.0 0.0 0.00 0.00 0.00 84 1017.2
20260507114832 13 339 0.0 0.0 0.00 0.00 0.00 84 1017.2
20260507113527 13 339 0.0 0.0 0.00 0.00 0.00 84 1017.2
20260507113336 13 339 0.0 0.0 0.00 0.00 0.00 84 1017.2
20260507112029 13 339 0.0 0.0 0.00 0.00 0.00 84 1017.2
20260507111854 13 339 0.0 0.0 0.00 0.00 0.00 84 1017.2
20260507110531 13 339 0.0 0.0 0.00 0.00 0.00 83 1017.2
20260507110322 13 339 0.0 0.0 0.00 0.00 0.00 83 1017.2
20260507105055 13 339 0.0 0.0 0.00 0.00 0.00 83 1017.2
20260507104838 13 339 0.0 0.0 0.00 0.00 0.00 83 1017.2
20260507103532 13 339 0.0 0.0 0.00 0.00 0.00 83 1017.2
20260507103357 13 339 0.0 0.0 0.00 0.00 0.00 83 1017.2
20260507102032 13 339 0.0 0.0 0.00 0.00 0.00 82 1017.2
20260507101821 13 339 0.0 0.0 0.00 0.00 0.00 82 1017.2
20260507100522 13 339 0.0 0.0 0.00 0.00 0.00 82 1017.2
20260507100347 13 339 0.0 0.0 0.00 0.00 0.00 82 1017.2
20260507095100 13 339 0.0 0.0 0.00 0.00 0.00 82 1017.2
20260507094821 13 339 0.0 0.0 0.00 0.00 0.00 82 1017.3
20260507093537 13 339 0.0 0.0 0.00 0.00 0.00 82 1017.3
20260507093326 13 339 0.0 0.0 0.00 0.00 0.00 82 1017.4
20260507092040 13 339 0.0 0.0 0.00 0.00 0.00 82 1017.4
20260507091821 13 339 0.0 0.0 0.00 0.00 0.00 82 1017.7
20260507090519 13 339 0.0 0.0 0.00 0.00 0.00 82 1017.7
20260507090328 13 339 0.0 0.0 0.00 0.00 0.00 82 1017.7
20260507085023 13 338 0.0 0.0 0.00 0.00 0.00 82 1017.7
20260507084831 13 339 0.0 0.0 0.00 0.00 0.00 82 1017.8
20260507083525 13 338 0.0 0.0 0.00 0.00 0.00 82 1017.8
20260507083329 13 338 0.0 0.0 0.00 0.00 0.00 82 1017.8
20260507082027 13 339 0.0 0.0 0.00 0.00 0.00 82 1017.8
20260507081819 13 339 0.0 0.0 0.00 0.00 0.00 82 1017.8
20260507080535 13 339 0.0 0.0 0.00 0.00 0.00 82 1017.8
20260507080323 13 339 0.0 0.0 0.00 0.00 0.00 82 1017.8
20260507075037 13 339 0.0 0.0 0.00 0.00 0.00 81 1017.8
20260507074825 13 339 0.0 0.0 0.00 0.00 0.00 81 1017.8
20260507073539 13 339 0.0 0.0 0.00 0.00 0.00 82 1017.8
20260507073346 13 339 0.0 0.0 0.00 0.00 0.00 82 1017.9
20260507072019 13 339 0.0 0.0 0.00 0.00 0.00 82 1017.9
20260507071846 13 339 0.0 0.0 0.00 0.00 0.00 82 1017.9
20260507070519 13 339 0.0 0.0 0.00 0.00 0.00 82 1017.9
20260507070343 13 339 0.0 0.0 0.00 0.00 0.00 82 1017.9
20260507065059 13 339 0.0 0.0 0.00 0.00 0.00 82 1017.9
20260507064827 13 338 0.0 0.0 0.00 0.00 0.00 82 1018.0
20260507063541 13 339 0.0 0.0 0.00 0.00 0.00 82 1018.0
20260507063322 13 339 0.0 0.0 0.00 0.00 0.00 82 1018.1
20260507062057 13 339 0.0 0.0 0.00 0.00 0.00 82 1018.1
20260507061820 13 338 0.0 0.0 0.00 0.00 0.00 82 1018.2